Regional Weather Roundup
Issued by NWS Boston, MA

Current Version | Previous Version | Text Only | Print | Product List | Glossary Off
Versions: 1 2 3 4 5 6 7 8 9 10 11 12 13 14 15 16 17 18 19 20 21 22 23 24 25 26 27 28 29 30 31 32 33 34 35 36 37 38 39 40 41 42 43 44 45 46 47 48 49 50
000 ASUS41 KBOX 241010 RWRBOX REGIONAL WEATHER ROUNDUP NATIONAL WEATHER SERVICE BOSTON/NORTON MA 500 AM EST THU JAN 24 2019 NOTE: "FAIR" INDICATES FEW OR NO CLOUDS BELOW 12,000 FEET WITH NO SIGNIFICANT WEATHER AND/OR OBSTRUCTIONS TO VISIBILITY. MAZALL-241100- EASTERN MASSACHUSETTS CITY SKY/WX TMP DP RH WIND PRES REMARKS BOSTON CLOUDY 51 48 89 SW18 29.80F FOG BEVERLY CLOUDY 51 47 86 S13G21 29.78F LAWRENCE LGT RAIN 50 48 93 S8G17 29.78F BEDFORD LGT RAIN 51 48 89 S14G22 29.77F BLUE HILL N/A 48 48 100 S25G41 29.77F NORWOOD LGT RAIN 53 50 89 S13 29.80F FOG MARSHFIELD MOCLDY 55 52 88 SW16G29 29.82F PLYMOUTH CLOUDY 50 47 89 SW16G28 29.84F TAUNTON CLOUDY 54 49 83 SW17G26 29.83F NEW BEDFORD CLOUDY 51 50 96 S20G29 29.85F $$ MAZALL-241100- CAPE COD AND THE ISLANDS CITY SKY/WX TMP DP RH WIND PRES REMARKS FALMOUTH CLOUDY 52 48 87 S25G36 29.86F HYANNIS LGT RAIN 44 41 89 S9 29.88F FOG CHATHAM CLOUDY 45 42 89 VRB7 29.91F PROVINCETOWN FAIR 45 44 97 S17G25 29.86F NANTUCKET CLOUDY 44 43 96 S20G26 29.91F MARTHAS VNYRD CLOUDY 49 47 93 S18G26 29.88F $$ MAZALL-241100- CENTRAL AND WESTERN MASSACHUSETTS CITY SKY/WX TMP DP RH WIND PRES REMARKS WORCESTER LGT RAIN 48 48 100 S21G30 29.75F FOG FITCHBURG LGT RAIN 48 47 96 SE7 29.75F FOG ORANGE LGT RAIN 49 46 90 S12 29.74F SPRINGFIELD NOT AVBL WESTFIELD RAIN 36 34 92 CALM 29.74F VSB 1 NORTH ADAMS LGT RAIN 43 42 97 VRB5 29.68F PITTSFIELD LGT RAIN 47 45 93 S12G20 29.67F FOG $$ RIZALL-241100- RHODE ISLAND CITY SKY/WX TMP DP RH WIND PRES REMARKS PROVIDENCE LGT RAIN 53 50 89 SW23G35 29.82F NEWPORT CLOUDY 50 48 93 S17G29 29.84F BLOCK ISLAND CLOUDY 50 47 89 S24G30 29.84F SMITHFIELD LGT RAIN 52 50 93 SW14G26 29.81 WESTERLY CLOUDY 52 49 89 S16G24 29.83F $$ CTZALL-241100- CONNECTICUT CITY SKY/WX TMP DP RH WIND PRES REMARKS BRADLEY INTL CLOUDY 46 46 100 S15 29.75F FOG HARTFORD LGT RAIN 49 47 93 S10 29.78F FOG BRIDGEPORT LGT RAIN 47 45 93 S15 29.79F FOG DANBURY LGT RAIN 51 48 89 S15G25 29.75F GROTON CLOUDY 49 47 93 S20 29.82F NEW HAVEN LGT RAIN 49 47 93 S12 29.79F FOG CHESTER LGT RAIN 52 50 93 S20G28 29.81F MERIDEN RAIN 47 46 97 S12 29.78F FOG WILLIMANTIC LGT RAIN 52 52 100 S17G31 29.79F FOG OXFORD LGT RAIN 48 48 100 S16G24 29.76F FOG $$ MEZ002-015-021-024-NHZ003-005-008-011-012-014-VTZ005-008-241100- NORTHERN NEW ENGLAND CITY SKY/WX TMP DP RH WIND PRES REMARKS PORTLAND ME LGT RAIN 38 38 100 VRB3 29.78F VSB 3/4 BANGOR ME CLOUDY 39 37 92 SW6 29.76F CONCORD NH FOG 37 36 96 CALM 29.74F VSB 1/4 MANCHESTER NH LGT RAIN 37 35 92 N3 29.74F VSB 1/2 NASHUA NH LGT RAIN 49 49 100 VRB5 29.75F PORTSMOUTH NH NOT AVBL JAFFREY NH LGT RAIN 47 47 100 S12 29.72F KEENE NH RAIN 36 36 100 CALM 29.72F FOG BURLINGTON VT MOCLDY 43 38 82 S21G29 29.60F MT. WASHINGTON FRZ RAIN 32 32 100 SW71G87 N/A VSB 0 WCI 12 $$ NYZ052-076-241100- EASTERN NEW YORK CITY SKY/WX TMP DP RH WIND PRES REMARKS ALBANY LGT RAIN 43 40 89 S8 29.67F NEW YORK CITY LGT RAIN 49 47 93 S15 29.75F $$ ANZALL-241100- MARINE OBSERVATIONS STATION/POSITION TIME TEMP WIND PRES VSBY WAVE AIR SEA DIR/SP/G HT/PER (UTC) (F) (DEG/KT/KT) (MB) (MI) (FT/S) BOSTON BUOY 0950 51 42 180/ 23/ 29 1008.6F 4/ 4 BUZZARDS BAY 0900 48 190/ 28/ 30 1012.5F NANTUCKET SOUND 0950 41 34 190/ 16/ 19 1012.0F 2/ 4 MASS BAY-STELLWA 0904 47 40 210/ 19/ 23 1008.5F 1 7/8 4/ 5 ISLE OF SHOALS 1000 47 190/ 24/ 25 1007.7F S OF BLOCK IS 0930 44 N/A 7/ 7 $$ ......................KEY......................... SKY/WX - SKY CONDITION/PRESENT WEATHER TMP - TEMPERATURE IN FAHRENHEIT DWPT - DEWPOINT IN FAHRENHEIT RH - RELATIVE HUMIDITY IN PERCENT WIND - DIRECTION AND SPEED IN MPH PRES - MEAN SEA LEVEL PRESSURE IN INCHES OF HG WCI - WIND CHILL INDEX VSB - VISIBILITY IN MILES HX - HEAT INDEX TC - TEMPERATURE IN CELSIUS VRB - VARIABLE WIND DIRECTION N/A - NOT AVAILABLE

USA.gov is the U.S. government's official web portal to all federal, state and local government web resources and services.